This demonstration page uses our WeatherBlox Daily Observations layout. Learn more.

Left ArrowRight Arrow

Hourly Observations for June 4, 2015

Temp ( °F °C ) Dew Point ( °F °C ) Humidity (%) Winds ( mph kmh ) Pressure ( in mb ) Visibility ( mi km ) Precip ( " mm )
12:53 am 00:53 Clear 55 12.8 52 11.1 90 90 E 8 13 29.90 1013 10 16 0.00 0.00
1:53 am 01:53 Clear 55 12.8 52 11.1 90 90 ENE 8 13 29.89 1012 10 16 0.00 0.00
2:53 am 02:53 Clear 55 12.8 52 11.1 90 90 E 9 15 29.90 1013 10 16 0.00 0.00
3:53 am 03:53 Mostly Cloudy 55 12.8 53 11.7 93 93 E 6 9 29.91 1013 10 16 0.00 0.00
4:53 am 04:53 Cloudy with Light Rain 54 12.2 53 11.7 97 97 SSW 10 17 29.93 1013 10 16 0.01 0.25
5:53 am 05:53 Cloudy 55 12.8 53 11.7 93 93 NE 6 9 29.94 1014 10 16 0.03 0.76
6:53 am 06:53 Cloudy 55 12.8 54 12.2 96 96 NNW 3 6 29.93 1014 10 16 0.00 0.03
7:53 am 07:53 Cloudy 55 12.8 54 12.2 96 96 E 8 13 29.96 1015 10 16 0.00 0.00
8:53 am 08:53 Cloudy 54 12.2 52 11.1 93 93 ENE 12 19 29.98 1015 10 16 0.00 0.00
9:53 am 09:53 Cloudy with Light Rain 55 12.8 53 11.7 93 93 ENE 10 17 30.01 1016 10 16 0.00 0.03
10:53 am 10:53 Cloudy 57 13.9 55 12.8 93 93 NE 13 20 30.01 1016 10 16 0.00 0.03
11:07 am 11:07 Cloudy 58 14.4 56 13.3 93 93 ENE 14 22 30.00 1016 10 16 0.00 0.00
11:16 am 11:16 Cloudy 57 14 55 13 94 94 ENE 14 22 30.00 1016 10 16 0.00 0.00
11:53 am 11:53 Cloudy 57 13.9 54 12.2 90 90 ENE 15 24 30.03 1017 10 16 0.00 0.00
12:53 pm 12:53 Cloudy 59 15 54 12.2 83 83 E 17 28 30.03 1017 10 16 0.00 0.00
12:58 pm 12:58 Cloudy 61 16 54 12 77 77 E 20 31 29.97 1015 10 16 0.00 0.00
1:53 pm 13:53 Mostly Cloudy 63 17.2 53 11.7 70 70 E 20 31 30.01 1016 10 16 0.00 0.00
2:06 pm 14:06 Mostly Cloudy 63 17.2 53 11.7 70 70 ENE 16 26 29.97 1015 10 16 0.00 0.00
2:26 pm 14:26 Partly Cloudy 63 17 54 12 73 73 E 21 33 29.97 1015 10 16 0.00 0.00
2:53 pm 14:53 Mostly Cloudy 63 17.2 53 11.7 70 70 E 20 31 30.01 1016 10 16 0.00 0.00
3:02 pm 15:02 Partly Cloudy 64 18 54 12 68 68 E 18 30 29.97 1015 10 16 0.00 0.00
3:53 pm 15:53 Sunny 66 18.9 54 12.2 65 65 ENE 14 22 30.00 1016 10 16 0.00 0.00
4:53 pm 16:53 Sunny 67 19.4 55 12.8 66 66 E 18 30 29.98 1015 10 16 0.00 0.00
5:53 pm 17:53 Sunny 66 18.9 55 12.8 68 68 E 13 20 29.98 1015 10 16 0.00 0.00
6:53 pm 18:53 Sunny 64 17.8 55 12.8 73 73 E 12 19 30.01 1016 10 16 0.00 0.00
7:01 pm 19:01 Partly Cloudy with Nearby Thunderstorms 64 17.8 55 12.8 73 73 ENE 9 15 29.94 1014 10 16 0.00 0.00
7:31 pm 19:31 Cloudy with Light Rain 62 16.7 57 13.9 84 84 E 9 15 29.97 1015 10 16 0.01 0.25
7:53 pm 19:53 Cloudy with Thunderstorms 61 16.1 58 14.4 90 90 ESE 12 19 30.02 1017 8 13 0.04 1.02
8:14 pm 20:14 Cloudy with Light Rain 61 16 59 15 94 94 ESE 14 22 29.94 1014 10 16 0.00 0.00
8:53 pm 20:53 Mostly Cloudy 62 16.7 53 11.7 73 73 E 6 9 30.00 1016 10 16 0.03 0.76
9:53 pm 21:53 Clear 61 16.1 52 11.1 72 72 VRB 6 9 30.01 1016 10 16 0.00 0.00
10:53 pm 22:53 Clear 57 13.9 50 10 78 78 Calm 30.03 1017 10 16 0.00 0.00
11:53 pm 23:53 Clear 55 12.8 50 10 83 83 Calm 30.03 1017 10 16 0.00 0.00

Powered by AerisWeather